When you browse on this site, cookies collect data to enhance your experience and personalize the content and advertising you see.
Visit our Privacy Policy to learn more. By continuing to use the site, you agree to this use of cookies and data.
  • In Lithuania
  • List of Countries
  • For 7 days
  • Water Temperature
  • Satellite Maps
  • Weather Map
  • Weather Widgets
  • user-avatar
    Login

    Hourly Weather Trujillo

    Today, 16 January, Wednesday

    Time Temperature Precipitation Wind Pressure Humidity
    00:00 +18°C° 0 mm 1 mps 648 mmHg 72%
    01:00 +18°C° 0 mm 1 mps 648 mmHg 70%
    02:00 +16°C° 0 mm 1 mps 647 mmHg 69%
    03:00 +16°C° 0 mm 1 mps 647 mmHg 69%
    04:00 +16°C° 0 mm 1 mps 647 mmHg 69%
    05:00 +18°C° 0 mm 1 mps 648 mmHg 68%
    06:00 +18°C° 0 mm 1 mps 648 mmHg 67%
    07:00 +19°C° 0 mm 1 mps 649 mmHg 66%
    08:00 +22°C° 0 mm 1 mps 650 mmHg 59%
    09:00 +25°C° 0 mm 1 mps 651 mmHg 51%
    10:00 +28°C° 0 mm 1 mps 652 mmHg 43%
    11:00 +28°C° 0 mm 1 mps 651 mmHg 43%
    12:00 +28°C° 0 mm 1 mps 651 mmHg 42%
    13:00 +29°C° 0 mm 1 mps 650 mmHg 42%
    14:00 +28°C° 0 mm 1 mps 649 mmHg 46%
    15:00 +27°C° 0 mm 1 mps 649 mmHg 49%
    16:00 +26°C° 0 mm 1 mps 648 mmHg 52%
    17:00 +24°C° 0 mm 1 mps 648 mmHg 62%
    18:00 +22°C° 0 mm 1 mps 647 mmHg 72%
    19:00 +19°C° 0 mm 1 mps 647 mmHg 82%
    20:00 +19°C° 0 mm 1 mps 647 mmHg 81%
    21:00 +19°C° 0 mm 1 mps 648 mmHg 80%
    22:00 +19°C° 0 mm 1 mps 648 mmHg 79%
    23:00 +19°C° 0 mm 1 mps 648 mmHg 78%

    Tomorrow, 17 January, Thursday

    Time Temperature Precipitation Wind Pressure Humidity
    00:00 +18°C° 0 mm 1 mps 648 mmHg 76%
    01:00 +18°C° 0 mm 1 mps 647 mmHg 75%
    02:00 +18°C° 0 mm 1 mps 647 mmHg 75%
    03:00 +18°C° 0 mm 1 mps 647 mmHg 76%
    04:00 +18°C° 0 mm 1 mps 647 mmHg 77%
    05:00 +19°C° 0.1 mm 1 mps 648 mmHg 78%
    06:00 +19°C° 0.1 mm 1 mps 648 mmHg 79%
    07:00 +20°C° 0.1 mm 1 mps 649 mmHg 80%
    08:00 +22°C° 0.1 mm 1 mps 650 mmHg 73%
    09:00 +24°C° 0.1 mm 1 mps 651 mmHg 66%
    10:00 +26°C° 0.1 mm 1 mps 652 mmHg 59%
    11:00 +26°C° 0.1 mm 1 mps 651 mmHg 59%
    12:00 +26°C° 0.1 mm 1 mps 650 mmHg 59%
    13:00 +26°C° 0.1 mm 1 mps 649 mmHg 58%
    14:00 +26°C° 0.1 mm 1 mps 648 mmHg 60%
    15:00 +25°C° 0.1 mm 1 mps 648 mmHg 61%
    16:00 +25°C° 0.1 mm 1 mps 647 mmHg 63%
    17:00 +23°C° 0 mm 1 mps 647 mmHg 69%
    18:00 +22°C° 0 mm 1 mps 647 mmHg 76%
    19:00 +20°C° 0 mm 1 mps 647 mmHg 82%
    20:00 +20°C° 0 mm 1 mps 647 mmHg 82%
    21:00 +19°C° 0 mm 1 mps 647 mmHg 81%
    22:00 +19°C° 0 mm 1 mps 648 mmHg 81%
    23:00 +19°C° 0 mm 1 mps 647 mmHg 80%

    Day after tomorrow, 18 January, Friday

    Time Temperature Precipitation Wind Pressure Humidity
    00:00 +19°C° 0 mm 1 mps 647 mmHg 79%
    01:00 +18°C° 0 mm 1 mps 647 mmHg 78%
    02:00 +19°C° 0.1 mm 1 mps 647 mmHg 79%
    03:00 +19°C° 0.1 mm 1 mps 647 mmHg 80%
    04:00 +19°C° 0.1 mm 1 mps 647 mmHg 81%
    05:00 +19°C° 0.1 mm 1 mps 647 mmHg 81%
    06:00 +20°C° 0.1 mm 1 mps 648 mmHg 81%
    07:00 +20°C° 0.1 mm 1 mps 648 mmHg 81%
    08:00 +22°C° 0 mm 1 mps 649 mmHg 74%
    09:00 +24°C° 0 mm 1 mps 650 mmHg 67%
    10:00 +26°C° 0 mm 1 mps 650 mmHg 59%
    11:00 +27°C° 0 mm 1 mps 650 mmHg 55%
    12:00 +28°C° 0 mm 1 mps 649 mmHg 50%
    13:00 +29°C° 0 mm 1 mps 649 mmHg 45%
    14:00 +27°C° 0.2 mm 1 mps 648 mmHg 53%
    15:00 +26°C° 0.2 mm 1 mps 647 mmHg 60%
    16:00 +24°C° 0.2 mm 1 mps 646 mmHg 68%
    17:00 +22°C° 0.1 mm 1 mps 646 mmHg 74%
    18:00 +21°C° 0.1 mm 1 mps 646 mmHg 80%
    19:00 +19°C° 0.1 mm 1 mps 646 mmHg 87%
    20:00 +19°C° 0 mm 1 mps 646 mmHg 84%
    21:00 +19°C° 0 mm 1 mps 647 mmHg 82%
    22:00 +19°C° 0 mm 1 mps 647 mmHg 79%
    23:00 +18°C° 0 mm 1 mps 647 mmHg 77%

    19 January, Saturday

    Time Temperature Precipitation Wind Pressure Humidity
    00:00 +18°C° 0 mm 1 mps 646 mmHg 75%
    01:00 +18°C° 0 mm 1 mps 646 mmHg 73%
    02:00 +18°C° 0 mm 1 mps 646 mmHg 74%
    03:00 +18°C° 0 mm 1 mps 646 mmHg 75%
    04:00 +18°C° 0 mm 1 mps 646 mmHg 76%
    05:00 +18°C° 0 mm 1 mps 647 mmHg 75%
    06:00 +19°C° 0 mm 1 mps 647 mmHg 74%
    07:00 +20°C° 0 mm 1 mps 648 mmHg 74%
    08:00 +22°C° 0 mm 1 mps 649 mmHg 66%
    09:00 +25°C° 0 mm 1 mps 650 mmHg 58%
    10:00 +27°C° 0 mm 1 mps 651 mmHg 50%
    11:00 +28°C° 0 mm 1 mps 650 mmHg 47%
    12:00 +29°C° 0 mm 1 mps 650 mmHg 45%
    13:00 +30°C° 0 mm 1 mps 649 mmHg 43%
    14:00 +28°C° 0.1 mm 1 mps 648 mmHg 49%
    15:00 +27°C° 0.1 mm 1 mps 647 mmHg 55%
    16:00 +25°C° 0.1 mm 1 mps 646 mmHg 61%
    17:00 +23°C° 0 mm 1 mps 646 mmHg 68%
    18:00 +22°C° 0 mm 1 mps 646 mmHg 76%
    19:00 +20°C° 0 mm 1 mps 646 mmHg 83%
    20:00 +20°C° 0 mm 1 mps 646 mmHg 81%
    21:00 +19°C° 0 mm 1 mps 647 mmHg 79%
    22:00 +19°C° 0 mm 1 mps 647 mmHg 77%
    23:00 +19°C° 0 mm 1 mps 647 mmHg 75%

    20 January, Sunday

    Time Temperature Precipitation Wind Pressure Humidity
    00:00 +18°C° 0 mm 1 mps 646 mmHg 73%
    01:00 +18°C° 0 mm 1 mps 646 mmHg 70%
    02:00 +18°C° 0 mm 1 mps 646 mmHg 71%
    03:00 +18°C° 0 mm 1 mps 646 mmHg 72%
    04:00 +18°C° 0 mm 1 mps 646 mmHg 73%
    05:00 +19°C° 0 mm 1 mps 647 mmHg 73%
    06:00 +19°C° 0 mm 1 mps 647 mmHg 73%
    07:00 +20°C° 0 mm 1 mps 648 mmHg 73%
    08:00 +22°C° 0 mm 1 mps 649 mmHg 66%
    09:00 +25°C° 0 mm 1 mps 650 mmHg 59%
    10:00 +27°C° 0 mm 1 mps 651 mmHg 52%
    11:00 +28°C° 0 mm 1 mps 650 mmHg 50%
    12:00 +28°C° 0 mm 1 mps 650 mmHg 48%
    13:00 +29°C° 0 mm 1 mps 649 mmHg 46%
    14:00 +28°C° 0 mm 1 mps 648 mmHg 51%
    15:00 +27°C° 0 mm 1 mps 647 mmHg 57%
    16:00 +25°C° 0 mm 1 mps 646 mmHg 62%
    17:00 +24°C° 0 mm 1 mps 646 mmHg 69%
    18:00 +22°C° 0 mm 1 mps 646 mmHg 76%
    19:00 +19°C° 0 mm 0 mps 646 mmHg 83%
    20:00 +20°C° 0 mm 1 mps 647 mmHg 83%
    21:00 +20°C° 0 mm 1 mps 647 mmHg 83%
    22:00 +20°C° 0 mm 1 mps 647 mmHg 83%
    23:00 +20°C° 0 mm 1 mps 647 mmHg 82%

    21 January, Monday

    Time Temperature Precipitation Wind Pressure Humidity
    00:00 +19°C° 0 mm 1 mps 647 mmHg 82%
    01:00 +19°C° 0 mm 1 mps 647 mmHg 82%
    02:00 +19°C° 0 mm 1 mps 647 mmHg 81%
    03:00 +18°C° 0 mm 1 mps 646 mmHg 80%
    04:00 +18°C° 0 mm 1 mps 646 mmHg 80%
    05:00 +19°C° 0 mm 1 mps 647 mmHg 77%
    06:00 +19°C° 0 mm 1 mps 648 mmHg 75%
    07:00 +20°C° 0 mm 1 mps 648 mmHg 72%
    08:00 +22°C° 0 mm 1 mps 649 mmHg 66%
    09:00 +24°C° 0 mm 1 mps 650 mmHg 59%
    10:00 +26°C° 0 mm 1 mps 651 mmHg 52%
    11:00 +26°C° 0.1 mm 1 mps 650 mmHg 55%
    12:00 +25°C° 0.1 mm 1 mps 649 mmHg 58%
    13:00 +25°C° 0.1 mm 1 mps 648 mmHg 60%
    14:00 +24°C° 0.1 mm 1 mps 648 mmHg 63%
    15:00 +24°C° 0.1 mm 1 mps 647 mmHg 66%
    16:00 +23°C° 0.1 mm 1 mps 646 mmHg 69%
    17:00 +22°C° 0 mm 1 mps 646 mmHg 74%
    18:00 +19°C° 0 mm 0 mps 647 mmHg 78%
    19:00 +18°C° 0 mm 0 mps 647 mmHg 83%
    20:00 +18°C° 0 mm 0 mps 647 mmHg 83%
    21:00 +18°C° 0 mm 0 mps 647 mmHg 83%
    22:00 +17°C° 0 mm 0 mps 648 mmHg 83%
    23:00 +19°C° 0 mm 1 mps 648 mmHg 83%
    Show more